Slab Fork, WV (25920)

7:07 AM EST on February 11, 2016 (GMT -0500)
Fairdale | | Change Station
CLOSE
Current Station
Personal Weather Station
Location: Lester, WV
Elevation: 1938 ft
Nearby Weather Stations

Elev 1938 ft 37.74 °N, 81.35 °W | Updated 8 seconds ago

Overcast
Overcast
12.4 °F
Feels Like 12 °F
N
0.0
Wind Variable Wind from WNW
Gusts 0.0 mph

Today
High -- | Low -- °F
--% Chance of Precip.
Yesterday
High -- | Low -- °F
Precip. -- in
Pressure 30.20 in
Visibility 10.0 miles
Clouds Mostly Cloudy 2400 ft
Overcast 3000 ft
Windchill 12 °F
Dew Point -4 °F
Humidity 46%
Rainfall 0.00 in
Snow Depth Not available.
7:19 AM 5:59 PM
Waxing Crescent, 11% visible
METAR KBKW 111151Z AUTO 30006KT 10SM BKN024 OVC030 M12/M16 A3002 RMK AO2 SNE26 SLP226 P0000 60000 70001 T11221161 11117 21122 53016
Pressure 30.20 in
Visibility 10.0 miles
Clouds Mostly Cloudy 2400 ft
Overcast 3000 ft
Windchill 12 °F
Dew Point -4 °F
Humidity 46%
Rainfall 0.00 in
Snow Depth Not available.
7:19 AM 5:59 PM
Waxing Crescent, 11% visible
METAR KBKW 111151Z AUTO 30006KT 10SM BKN024 OVC030 M12/M16 A3002 RMK AO2 SNE26 SLP226 P0000 60000 70001 T11221161 11117 21122 53016

10-Day Weather Forecast

Almanac

Astronomy

Feb. 11, 2016 Rise Set
Actual Time
Civil Twilight
Nautical Twilight
Astronomical Twilight
Moon
Length of Visible Light
Length of Day
Tomorrow will be .
, % of the Moon is Illuminated

Today's Extremes

State Highs State Lows

Community

WunderPhotos

Upload Photos

1,892,035 photos uploaded!

WunderBlog® & News

Nearby

Air Quality

  Air Quality AQ Index Pollutant
Not available.

Snow Depth

Station Depth Elevation

Earthquake Activity

City Distance Mag. Time & Date
Minimum magnitude displayed is 2.5.

Coastal Water Temperatures

Place Temperature

Stations

Nearby Weather Stations

Station Location Temp. Windchill Dew Point Humidity Wind Precip. Elev Updated Type
                   

Watches & Warnings

There are currently no watches in effect.